Skip Page Navigation
NASA JPL Caltech
NASA Logo - Jet Propulsion Laboratory + View the NASA Portal
+ Center for Near-Earth Object Studies
JPL Home Earth Solar System Stars & Galaxies Technology
JPL Solar System Dynamics
BODIES ORBITS EPHEMERIDES TOOLS PHYSICAL DATA DISCOVERY FAQ SITE MAP
JPL Small-Body Database Browser
Search: [ help ]  
105168 (2000 OU14)
Classification: Main-belt Asteroid          SPK-ID: 2105168
Ephemeris | Orbit Diagram | Orbital Elements | Mission Design | Physical Parameters | Discovery Circumstances | Close-Approach Data ]

[ show orbit diagram ]
Orbital Elements at Epoch 2459200.5 (2020-Dec-17.0) TDB
Reference: JPL 24 (heliocentric ecliptic J2000)
 Element Value Uncertainty (1-sigma)   Units 
e .1516778940966927 3.9192e-08  
a 3.132865372471001 2.4871e-08 au
q 2.657678950286149 1.2776e-07 au
i 18.13982849130048 4.4575e-06 deg
node 120.9170830365273 1.4644e-05 deg
peri 177.5410510411784 2.1934e-05 deg
M 246.5765373204998 1.8618e-05 deg
tp 2459838.633326860482
(2022-Sep-16.13332686)
0.00010886 TDB
period 2025.401025878697
5.55
2.4119e-05
6.603e-08
d
yr
n .1777425780871313 2.1166e-09 deg/d
Q 3.608051794655853 2.8644e-08 au
  Orbit Determination Parameters
   # obs. used (total)      747  
   data-arc span      7984 days (21.86 yr)  
   first obs. used      1999-05-14  
   last obs. used      2021-03-23  
   planetary ephem.      DE441  
   SB-pert. ephem.      SB441-N16  
   condition code      0  
   norm. resid. RMS      .60028  
   source      ORB  
   producer      Otto Matic  
   solution date      2021-May-04 08:39:58  

Additional Information
 Earth MOID = 1.64012 au 
 Jupiter MOID = 1.64806 au 
 T_jup = 3.119 
[ show covariance matrix ]

Ephemeris | Orbit Diagram | Orbital Elements | Mission Design | Physical Parameters | Discovery Circumstances | Close-Approach Data ]

Physical Parameter Table
Parameter Symbol Value Units Sigma Reference Notes
absolute magnitude H 14.67   n/a MPCxxxxx  
diameter diameter 3.381 km 0.556 urn:nasa:pds:neowise_diameters_albedos::2.0[mainbelt] (http://adsabs.harvard.edu/abs/2011ApJ...741...68M)  
geometric albedo albedo 0.269   0.037 urn:nasa:pds:neowise_diameters_albedos::2.0[mainbelt] (http://adsabs.harvard.edu/abs/2011ApJ...741...68M)  

105168 (2000 OU14)          Discovered 2000-Jul-23 by LINEAR at Socorro
Reference: 20051019/Numbers.arcLast Updated: 2005-10-26

[ hide close-approach data ]
Close-Approach Data   ...sorted by Date/Time (TDB)
Date/Time (TDB) Time Uncertainty
(days_HH:MM)
Body Nominal Distance (au) Minimum Distance (au) Maximum Distance (au) V-relative (km/s) V-infinity (km/s) JD (TDB) Time Uncertainty (minutes) Semi-major axis (km) Semi-minor axis (km) range-LOV angle (deg) N-sigma BP Orbit Ref. Reference Modified
1931-Jun-28 01:08 00:03 Jupiter 1.65799947932989 1.65799850354583 1.65800045514995 4.30422063777706 4.18384690400199 2426520.547305519 2.67377657264051 418.050961000001 15.121227550257 -83.8212995648591 3613465.53670618 T 24 CATAB v2.0g-lin.ifort 2021-May-04 08:40:02 2021-May-04 08:40
1941-Oct-30 13:42 00:03 Jupiter 1.88359430486878 1.88359230578043 1.88359630396322 3.272879015329 3.13247007030168 2430298.070608831 3.09113834451535 240.973123927508 68.4333931242694 -65.0231451047501 2928700.83801636 T 24 CATAB v2.0g-lin.ifort 2021-May-04 08:40:02 2021-May-04 08:40
2014-Apr-16 16:33 < 00:01 Jupiter 1.63256973582478 1.63256934488864 1.6325701267611 4.26445285685538 4.14100261211971 2456764.189541437 0.253197927421177 81.0235626582118 16.5710155160339 -83.5991695867457 3619541.55275199 T 24 CATAB v2.0g-lin.ifort 2021-May-04 08:40:02 2021-May-04 08:40
2024-Jul-22 03:48 < 00:01 Jupiter 1.98669785777659 1.98669718414481 1.98669853140906 2.99513726295714 2.84923733400154 2460513.658445547 0.56689824448858 225.561044082835 32.0605469948317 -85.0681047307622 2905082.3921563 T 24 CATAB v2.0g-lin.ifort 2021-May-04 08:40:02 2021-May-04 08:40
2086-Aug-27 13:09 00:02 Jupiter 1.97534096473027 1.97533910147362 1.97534282800039 4.22795682840769 4.1252906180712 2483195.047898232 2.3274504815001 282.429742382599 18.2061909421257 -70.8881487168712 3717087.76629523 T 24 CATAB v2.0g-lin.ifort 2021-May-04 08:40:02 2021-May-04 08:40
2097-Feb-04 01:40 00:03 Jupiter 1.6323017022072 1.63230118616031 1.63230221826169 4.21758691131043 4.09270246053951 2487008.569349345 2.55009604720747 334.168156600844 21.6061884143314 87.3198194679197 3463277.50490578 T 24 CATAB v2.0g-lin.ifort 2021-May-04 08:40:02 2021-May-04 08:40
2169-Jun-11 04:01 00:05 Jupiter 1.8631602611894 1.86315647781037 1.86316404466556 4.24772088234297 4.13931161488208 2513432.667651983 5.02440977073867 708.142478381884 16.2055465555246 -74.3944565424732 3610989.13188913 T 24 CATAB v2.0g-lin.ifort 2021-May-04 08:40:02 2021-May-04 08:40
2179-Nov-24 00:03 00:05 Jupiter 1.65958539407724 1.65958352955159 1.65958725867109 4.15859763739034 4.03400177385683 2517250.501891633 5.33451523614385 571.865257571505 28.3639503765191 80.5040111955037 3439051.30519444 T 24 CATAB v2.0g-lin.ifort 2021-May-04 08:40:02 2021-May-04 08:40
Ephemeris | Orbit Diagram | Orbital Elements | Mission Design | Physical Parameters | Discovery Circumstances | Close-Approach Data ]
ABOUT SSD CREDITS/AWARDS PRIVACY/COPYRIGHT GLOSSARY LINKS
FirstGov 2021-Jun-17 04:02 UT
(server date/time)  
NASA Home Page
Site Manager:   Ryan S. Park
Webmaster  Alan B. Chamberlin